Lake Charles, LA

8:26 PM CST on February 11, 2016 (GMT -0600)
Lake Charles Regional

Weather History for KLCH - November, 2010

Change the Weather History Date:

Saturday, November 20, 2010

  Actual Average Record
Temperature  
Mean Temperature 57 °F 60 °F  
Max Temperature 74 °F 70 °F 87 °F (1915)
Min Temperature 40 °F 49 °F 28 °F (1969)
Degree Days  
Heating Degree Days 8 7  
Month to date heating degree days 126 91  
Since 1 July heating degree days 139 127  
Cooling Degree Days 0 1  
Month to date cooling degree days 18 44  
Year to date cooling degree days 3250 2777  
Growing Degree Days 6 (Base 50)    
Moisture  
Dew Point 47 °F    
Average Humidity 77    
Maximum Humidity 100    
Minimum Humidity 53    
Precipitation  
Precipitation 0.00 in 0.15 in 2.80 in (1899)
Month to date precipitation 3.22 3.01  
Year to date precipitation 31.47 51.39  
Snow  
Snow 0.00 in 0.00 in 0.00 in ()
Month to date snowfall 0.0 0.0  
Since 1 July snowfall 0.0 0.0  
Since 1 September snowfall 0.0 0.0  
Snow Depth 0.00 in    
Sea Level Pressure  
Sea Level Pressure 30.19 in    
Wind  
Wind Speed 6 mph (ESE)    
Max Wind Speed 13 mph    
Max Gust Speed 17 mph    
Visibility 4 miles    
Events Fog    
T = Trace of Precipitation, MM = Missing Value Source: NWS Daily Summary

Daily Weather History Graph

Daily Weather History Graph

Search for Another Location

Airport or City:

Trip Planner

Search our weather history database for the weather conditions in past years. The results will help you decide how hot, cold, wet, or windy it might be!

Date:

Astronomy

Nov. 20, 2010 Rise Set
Actual Time 6:42 AM CST 5:14 PM CST
Civil Twilight 6:16 AM CST 5:40 PM CST
Nautical Twilight 5:47 AM CST 6:09 PM CST
Astronomical Twilight 5:18 AM CST 6:37 PM CST
Moon 4:24 PM CST (11/20) 5:40 AM CST (11/20)
Length of Visible Light 11h 23m
Length of Day
10h 32m
Waxing Gibbous, 99% of the Moon is Illuminated
Nov 20
Waxing Gibbous
Nov 21
Full
Nov 28
Last Quarter
Dec 5
New
Dec 13
First Quarter

Hourly Weather History & Observations

Time (CST) Temp. Windchill Dew Point Humidity Pressure Visibility Wind Dir Wind Speed Gust Speed Precip Events Conditions
12:02 AM 41.0 °F - 39.2 °F 93% 30.21 in 0.2 mi Calm Calm - N/A Fog Fog
12:10 AM 41.0 °F - 39.2 °F 93% 30.20 in 0.5 mi Calm Calm - N/A Fog Fog
12:28 AM 39.2 °F - 39.2 °F 100% 30.20 in 1.5 mi Calm Calm - N/A   Overcast
12:37 AM 41.0 °F - 39.2 °F 93% 30.20 in 0.5 mi Calm Calm - N/A Fog Fog
12:49 AM 41.0 °F - 39.2 °F 93% 30.20 in 0.2 mi Calm Calm - N/A Fog Fog
12:53 AM 39.9 °F - 39.0 °F 97% 30.22 in 0.2 mi Calm Calm - N/A Fog Fog
1:04 AM 39.2 °F - 39.2 °F 100% 30.20 in 1.0 mi Calm Calm - N/A   Mist
1:07 AM 39.2 °F - 39.2 °F 100% 30.19 in 3.0 mi Calm Calm - N/A   Overcast
1:26 AM 39.2 °F - 39.2 °F 100% 30.19 in 2.5 mi Calm Calm - N/A   Scattered Clouds
1:29 AM 39.2 °F - 39.2 °F 100% 30.19 in 1.0 mi Calm Calm - N/A   Mist
1:36 AM 39.2 °F - 39.2 °F 100% 30.18 in 0.5 mi Calm Calm - N/A Fog Fog
1:42 AM 39.2 °F - 39.2 °F 100% 30.18 in 1.5 mi Calm Calm - N/A   Partly Cloudy
1:45 AM 39.2 °F 37.0 °F 39.2 °F 100% 30.18 in 3.0 mi ESE 3.5 mph - N/A   Scattered Clouds
1:49 AM 41.0 °F - 39.2 °F 93% 30.18 in 1.5 mi Calm Calm - N/A   Mostly Cloudy
1:53 AM 42.1 °F 40.2 °F 39.9 °F 92% 30.20 in 1.2 mi East 3.5 mph - N/A   Mostly Cloudy
2:01 AM 41.0 °F - 39.2 °F 93% 30.18 in 3.0 mi Calm Calm - N/A   Mostly Cloudy
2:08 AM 42.8 °F 41.1 °F 39.2 °F 87% 30.18 in 6.0 mi East 3.5 mph - N/A   Scattered Clouds
2:20 AM 39.2 °F - 39.2 °F 100% 30.17 in 5.0 mi Calm Calm - N/A   Mostly Cloudy
2:23 AM 39.2 °F - 39.2 °F 100% 30.17 in 1.8 mi Calm Calm - N/A   Mostly Cloudy
2:29 AM 39.2 °F - 39.2 °F 100% 30.17 in 0.2 mi Calm Calm - N/A Fog Fog
2:38 AM 41.0 °F - 39.2 °F 93% 30.17 in 0.2 mi Calm Calm - N/A Fog Fog
2:49 AM 41.0 °F - 39.2 °F 93% 30.17 in 0.5 mi Calm Calm - N/A Fog Fog
2:53 AM 41.0 °F - 39.9 °F 96% 30.19 in 0.5 mi Calm Calm - N/A Fog Fog
3:14 AM 41.0 °F - 41.0 °F 100% 30.17 in 0.2 mi Calm Calm - N/A Fog Fog
3:34 AM 42.8 °F 41.1 °F 41.0 °F 93% 30.17 in 1.2 mi NNE 3.5 mph - N/A   Overcast
3:40 AM 42.8 °F 40.1 °F 42.8 °F 100% 30.17 in 5.0 mi NE 4.6 mph - N/A   Overcast
3:53 AM 43.0 °F - 42.1 °F 97% 30.19 in 4.0 mi Calm Calm - N/A   Overcast
4:35 AM 42.8 °F 40.1 °F 42.8 °F 100% 30.17 in 7.0 mi NE 4.6 mph - N/A   Scattered Clouds
4:53 AM 42.1 °F 39.2 °F 41.0 °F 96% 30.20 in 6.0 mi NE 4.6 mph - N/A   Clear
5:53 AM 42.1 °F 39.2 °F 41.0 °F 96% 30.21 in 4.0 mi NE 4.6 mph - N/A   Partly Cloudy
6:22 AM 42.8 °F 39.3 °F 42.8 °F 100% 30.19 in 4.0 mi ENE 5.8 mph - N/A   Mostly Cloudy
6:53 AM 44.1 °F 41.5 °F 43.0 °F 96% 30.23 in 3.0 mi NE 4.6 mph - N/A   Mostly Cloudy
7:00 AM 44.6 °F 43.1 °F 44.6 °F 100% 30.20 in 2.5 mi NE 3.5 mph - N/A   Mostly Cloudy
7:53 AM 48.0 °F - 46.9 °F 96% 30.24 in 2.5 mi NE 4.6 mph - N/A   Scattered Clouds
8:02 AM 50.0 °F - 48.2 °F 94% 30.22 in 3.0 mi ENE 4.6 mph - N/A   Partly Cloudy
8:53 AM 55.9 °F - 52.0 °F 87% 30.26 in 6.0 mi ENE 6.9 mph - N/A   Clear
9:53 AM 62.1 °F - 55.0 °F 78% 30.27 in 9.0 mi ESE 8.1 mph - N/A   Clear
10:53 AM 66.0 °F - 55.9 °F 70% 30.26 in 10.0 mi East 5.8 mph - N/A   Clear
11:53 AM 70.0 °F - 57.0 °F 63% 30.24 in 10.0 mi ESE 8.1 mph - N/A   Clear
12:53 PM 72.0 °F - 55.9 °F 57% 30.21 in 10.0 mi SE 6.9 mph - N/A   Clear
1:53 PM 73.0 °F - 55.9 °F 55% 30.19 in 10.0 mi SSE 10.4 mph - N/A   Clear
2:53 PM 73.9 °F - 57.0 °F 55% 30.18 in 10.0 mi South 8.1 mph - N/A   Partly Cloudy
3:53 PM 72.0 °F - 57.0 °F 59% 30.18 in 10.0 mi South 5.8 mph - N/A   Clear
4:53 PM 68.0 °F - 57.9 °F 70% 30.17 in 10.0 mi SSE 9.2 mph - N/A   Clear
5:53 PM 62.1 °F - 57.0 °F 84% 30.17 in 10.0 mi SSE 3.5 mph - N/A   Clear
6:53 PM 59.0 °F - 55.9 °F 90% 30.19 in 8.0 mi SE 4.6 mph - N/A   Clear
7:53 PM 57.9 °F - 55.9 °F 93% 30.19 in 6.0 mi SE 5.8 mph - N/A   Scattered Clouds
8:53 PM 61.0 °F - 57.9 °F 90% 30.18 in 7.0 mi ESE 8.1 mph - N/A   Scattered Clouds
9:53 PM 59.0 °F - 57.9 °F 96% 30.18 in 5.0 mi SE 4.6 mph - N/A   Clear
10:17 PM 60.8 °F - 59.0 °F 94% 30.16 in 4.0 mi SE 6.9 mph - N/A   Scattered Clouds
10:25 PM 60.8 °F - 60.8 °F 100% 30.16 in 4.0 mi SE 9.2 mph - N/A   Mostly Cloudy
10:36 PM 62.6 °F - 60.8 °F 94% 30.16 in 2.5 mi SE 10.4 mph - N/A   Overcast
10:46 PM 62.6 °F - 62.6 °F 100% 30.16 in 1.0 mi SE 11.5 mph - N/A   Overcast
10:53 PM 63.0 °F - 62.1 °F 97% 30.19 in 0.8 mi SE 10.4 mph - N/A   Mist
11:05 PM 62.6 °F - 62.6 °F 100% 30.16 in 1.0 mi SE 9.2 mph - N/A   Overcast
11:53 PM 64.0 °F - 63.0 °F 96% 30.18 in 1.0 mi SE 9.2 mph - N/A   Overcast